User: anonymous   Login
Location: Unspecified
(0.0000°N, 0.0000°E)
Time: 21:30:35
(UTC+00:00)
Language:

Nova 1 - Orbit

View from above orbital plane
View from above orbital plane
View from above satellite
View from above satellite

Ground track
Ground track

The orbit data is extracted from the following two-line orbital elements,

1 12458U 81044A   23083.51421492  .00000082  00000-0  17340-3 0  9999
2 12458  89.8734 104.5267 0013443 332.2458 182.3543 13.23096180 20650
Epoch (UTC): 24 March 2023 12:20:28
Eccentricity: 0.0013443
inclination: 89.8734°
perigee height: 1163 km
apogee height: 1183 km
right ascension of ascending node: 104.5267°
argument of perigee: 332.2458°
revolutions per day: 13.23096180
mean anomaly at epoch: 182.3543°
orbit number at epoch: 2065

The dashed part of the orbit path shows where the satellite is in the earth's shadow,  

DLR